CAPE
0 0 0 0 0 0 0 0 0 7 1666 1696 1446 1212 1207 1537 1583 1441 1008 796 918 1095 1620 1313 1065 709 600 253 195 134 55 53 150 46 60 32 62 40 131 52 0 1 135
0 0 0 0 0 0 0 0 0 0 722 1556 1673 1551 1475 1383 1384 1073 953 859 912 905 1209 1396 1155 869 753 303 188 142 67 74 97 85 30 11 8 10 5 19 42 48 1
0 0 0 0 0 0 0 0 0 0 150 1951 2070 1912 1719 1776 1116 1050 973 1030 796 874 1043 1218 1245 1043 585 345 319 210 151 104 55 103 137 5 31 9 8 10 9 31 18
0 0 0 0 0 0 0 0 59 131 0 2095 2251 1883 1618 1284 1273 1648 1445 1513 1303 1246 1325 1109 1065 837 605 575 460 369 281 97 36 93 289 104 75 62 7 12 13 10 9
0 0 0 0 0 0 0 13 434 1000 863 1804 2349 1814 1743 1940 1688 1816 2035 2012 2049 1725 1395 1016 864 1035 747 749 571 333 219 146 186 96 243 140 0 27 21 4 7 11 10
0 0 0 0 0 0 22 305 326 340 773 1065 1397 1870 1951 950 1056 1012 1240 1185 1497 1558 1373 1387 1319 1160 883 787 579 377 171 151 135 108 425 552 125 52 134 125 5 4 11
10 14 1 3 2 6 35 8 37 0 0 160 383 631 801 533 759 605 926 1080 837 850 930 1261 985 1049 878 821 665 446 276 157 92 76 200 600 247 313 214 102 94 4 9
4 6 1 15 19 18 3 0 0 1 1 1 0 0 2 212 76 20 173 771 1240 1102 779 370 483 808 843 831 868 346 309 161 121 81 43 181 618 381 87 76 81 5 9
6 8 6 3 16 12 15 17 4 1 2 0 1 1 0 0 1 0 0 5 84 336 775 687 739 688 411 440 530 452 322 148 122 104 61 81 162 218 86 0 1 35 38
15 15 7 14 4 5 9 11 11 10 2 0 0 0 0 0 0 0 0 0 0 0 2 47 397 349 485 308 300 256 293 256 144 84 78 53 61 39 42 0 0 0 9
8 7 5 3 8 0 9 11 0 0 5 0 0 0 0 0 0 0 0 0 0 0 0 0 14 295 486 399 282 458 314 240 266 92 76 48 45 25 17 0 0 0 0
12 8 4 1 3 2 1 14 5 0 2 1 0 0 0 0 0 0 0 0 0 0 0 0 1 2 263 402 290 267 168 196 271 183 83 67 34 33 44 7 8 0 5
13 13 16 1 0 0 1 8 13 6 1 0 0 0 0 0 0 0 0 0 0 0 0 0 0 0 0 72 286 200 168 229 261 197 100 78 31 41 24 9 5 53 2
13 10 12 8 3 5 10 5 4 4 2 0 0 0 0 0 0 0 0 0 0 0 1 3 1 1 0 0 35 227 220 214 188 169 80 79 22 39 16 31 115 4 2
0 1 3 5 6 8 9 2 1 2 1 0 0 0 0 0 0 1 2 1 3 4 3 5 3 2 2 0 0 4 118 76 99 155 54 19 19 8 13 20 31 4 0
1 0 0 0 0 0 3 2 1 1 1 1 0 0 1 0 1 2 2 3 3 5 4 6 3 3 3 0 0 0 2 36 24 22 14 0 0 0 0 0 2 0 0
3 1 1 0 0 0 0 1 3 2 1 1 1 0 0 1 1 2 1 4 5 4 3 6 3 6 4 0 0 0 3 3 2 7 0 0 0 0 0 2 1 1 0
2 0 1 0 0 0 0 0 1 2 4 3 2 1 2 1 1 2 3 3 6 4 3 5 8 7 5 0 0 0 1 2 1 0 0 0 0 1 0 1 1 1 1
1 0 0 0 0 0 0 1 1 2 3 2 3 3 2 2 4 4 4 6 6 3 2 6 5 10 5 0 0 0 2 2 0 1 1 1 1 0 1 1 1 1 1
0 0 0 1 0 0 0 1 1 2 3 4 5 3 3 4 5 5 5 4 5 5 2 6 7 4 4 0 0 0 3 1 0 1 1 1 0 1 1 1 1 1 0
0 0 0 0 0 0 1 2 2 4 5 5 4 3 3 3 4 4 4 4 3 5 8 5 3 7 3 1 0 0 2 0 0 1 0 0 1 1 1 0 1 0 1
0 0 0 0 0 0 1 1 2 4 5 4 2 2 1 2 2 4 3 4 5 4 3 3 2 3 12 0 0 1 0 0 0 0 0 0 0 0 1 1 1 1 0
0 0 0 0 0 0 1 2 3 4 5 4 2 2 1 1 1 4 9 9 7 6 4 5 10 4 8 7 0 0 0 0 0 0 0 0 0 0 0 0 0 0 0
1 2 1 0 1 0 0 3 5 4 5 5 4 4 7 6 3 5 8 9 9 12 15 20 10 3 9 8 1 2 3 1 1 0 0 0 0 0 0 0 0 0 0
0 1 2 0 0 0 0 2 4 4 5 6 7 5 7 5 5 5 8 7 10 11 14 20 10 16 8 7 1 2 2 1 0 0 0 0 0 0 0 0 0 0 0
2 1 0 0 0 0 1 2 4 4 5 5 5 6 8 9 9 9 5 0 0 0 2 4 7 9 8 4 2 1 0 0 0 0 0 0 0 0 0 0 0 1 1
CIN
-0 -0 -0 -0 -0 -0 -0 -0 -0 -207 -177 -184 -219 -238 -280 -252 -208 -204 -221 -211 -192 -131 -64 -94 -102 -119 -96 -167 -182 -160 -179 -152 -48 -38 -31 -60 -28 -29 -9 -20 -0 -3 -15
-0 -0 -0 -0 -0 -0 -0 -0 -0 -0 -200 -166 -208 -205 -241 -253 -230 -238 -243 -233 -167 -157 -88 -68 -74 -90 -62 -112 -166 -161 -202 -144 -94 -43 -77 -6 -0 -0 -0 -15 -4 -4 -23
-0 -0 -0 -0 -0 -0 -0 -0 -0 -0 -259 -126 -94 -103 -102 -80 -207 -251 -228 -189 -182 -94 -55 -42 -22 -36 -59 -91 -115 -123 -141 -163 -145 -54 -54 -0 -82 -68 -0 -0 -0 -15 -22
-0 -0 -0 -0 -0 -0 -0 -0 -358 -434 -0 -64 -45 -86 -125 -153 -174 -166 -199 -146 -170 -138 -45 -11 -21 -10 -48 -40 -83 -72 -77 -134 -141 -56 -25 -49 -95 -54 -0 -0 -0 -0 -16
-0 -0 -0 -0 -0 -0 -0 -460 -245 -144 -191 -75 -25 -50 -45 -18 -72 -64 -19 -90 -74 -100 -118 -75 -0 -7 -14 -40 -42 -81 -66 -68 -57 -109 -60 -36 -0 -100 -138 -0 -0 -0 -14
-0 -0 -0 -0 -0 -0 -256 -136 -233 -293 -158 -122 -76 -1 -0 -121 -165 -155 -90 -3 -62 -80 -40 -89 -8 -24 -16 -19 -32 -42 -53 -49 -49 -63 -13 -16 -59 -147 -53 -31 -3 -0 -0
-0 -0 -0 -0 -0 -58 -65 -148 -112 -0 -0 -361 -221 -113 -107 -251 -146 -107 -34 -5 -42 -101 -75 -22 -21 -35 -22 -14 -13 -19 -28 -35 -48 -63 -41 -15 -42 -29 -56 -58 -17 -0 -0
-0 -0 -0 -0 -0 -0 -0 -0 -0 -0 -0 -0 -0 -0 -40 -402 -409 -301 -35 -25 -9 -18 -44 -136 -81 -28 -26 -10 -1 -11 -17 -24 -32 -36 -74 -47 -5 -22 -86 -101 -38 -59 -0
-0 -0 -0 -0 -0 -0 -0 -0 -0 -0 -0 -0 -0 -0 -0 -0 -0 -0 -0 -309 -215 -103 -12 -27 -15 -14 -42 -38 -16 -6 -16 -20 -24 -34 -58 -66 -39 -54 -104 -0 -93 -50 -19
-0 -0 -0 -0 -0 -0 -0 -0 -0 -0 -0 -0 -0 -0 -0 -0 -0 -0 -0 -0 -0 -0 -0 -223 -27 -24 -10 -41 -24 -26 -24 -14 -26 -40 -44 -78 -68 -154 -144 -0 -0 -1 -50
-0 -0 -0 -0 -0 -0 -0 -0 -0 -0 -0 -0 -0 -0 -0 -0 -0 -0 -0 -0 -0 -0 -0 -0 -227 -38 -0 -4 -12 -4 -19 -19 -13 -38 -40 -101 -105 -158 -187 -0 -0 -0 -0
-0 -0 -0 -0 -0 -0 -0 -0 -0 -0 -0 -0 -0 -0 -0 -0 -0 -0 -0 -0 -0 -0 -0 -0 -0 -14 -39 -6 -10 -9 -28 -19 -2 -11 -38 -79 -123 -129 -141 -197 -165 -0 -0
-0 -0 -0 -0 -0 -0 -0 -0 -0 -0 -0 -0 -0 -0 -0 -0 -0 -0 -0 -0 -0 -0 -0 -0 -0 -0 -0 -143 -25 -10 -15 -7 -1 -13 -29 -66 -113 -122 -145 -183 -168 -85 -1
-0 -0 -0 -0 -0 -0 -0 -0 -0 -0 -0 -0 -0 -0 -0 -0 -0 -0 -0 -0 -0 -0 -0 -0 -0 -0 -0 -0 -149 -13 -1 -1 -10 -10 -27 -56 -122 -118 -145 -135 -67 -145 -0
-0 -0 -0 -0 -0 -0 -0 -0 -0 -0 -0 -0 -0 -0 -0 -0 -0 -0 -0 -0 -0 -0 -0 -0 -0 -0 -0 -0 -0 -0 -24 -31 -4 -20 -34 -68 -112 -160 -110 -130 -130 -0 -0
-0 -0 -0 -0 -0 -0 -0 -0 -0 -0 -0 -0 -0 -0 -0 -0 -0 -0 -0 -0 -0 -0 -0 -0 -0 -0 -0 -0 -0 -0 -0 -88 -40 -33 -77 -35 -0 -0 -0 -0 -72 -0 -0
-0 -0 -0 -0 -0 -0 -0 -0 -0 -0 -0 -0 -0 -0 -0 -0 -0 -0 -0 -0 -0 -0 -0 -0 -0 -0 -0 -0 -0 -0 -0 -0 -83 -170 -0 -0 -0 -0 -0 -0 -0 -0 -0
-0 -0 -0 -0 -0 -0 -0 -0 -0 -0 -0 -0 -0 -0 -0 -0 -0 -0 -0 -0 -0 -0 -0 -0 -0 -0 -0 -0 -0 -0 -0 -0 -0 -0 -0 -0 -0 -0 -0 -0 -0 -0 -0
-0 -0 -0 -0 -0 -0 -0 -0 -0 -0 -0 -0 -0 -0 -0 -0 -0 -0 -0 -0 -0 -0 -0 -0 -0 -0 -0 -0 -0 -0 -0 -0 -0 -0 -0 -0 -0 -0 -0 -0 -0 -0 -0
-0 -0 -0 -0 -0 -0 -0 -0 -0 -0 -0 -0 -0 -0 -0 -0 -0 -0 -0 -0 -0 -0 -0 -0 -0 -0 -0 -0 -0 -0 -0 -0 -0 -0 -0 -0 -0 -0 -0 -0 -0 -0 -0
-0 -0 -0 -0 -0 -0 -0 -0 -0 -0 -0 -0 -0 -0 -0 -0 -0 -0 -0 -0 -0 -0 -0 -0 -0 -0 -0 -0 -0 -0 -0 -0 -0 -0 -0 -0 -0 -0 -0 -0 -0 -0 -0
-0 -0 -0 -0 -0 -0 -0 -0 -0 -0 -0 -0 -0 -0 -0 -0 -0 -0 -0 -0 -0 -0 -0 -0 -0 -0 -0 -0 -0 -0 -0 -0 -0 -0 -0 -0 -0 -0 -0 -0 -0 -0 -0
-0 -0 -0 -0 -0 -0 -0 -0 -0 -0 -0 -0 -0 -0 -0 -0 -0 -0 -0 -0 -0 -0 -0 -0 -0 -0 -0 -0 -0 -0 -0 -0 -0 -0 -0 -0 -0 -0 -0 -0 -0 -0 -0
-0 -0 -0 -0 -0 -0 -0 -0 -0 -0 -0 -0 -0 -0 -0 -0 -0 -0 -0 -0 -0 -0 -0 -0 -0 -0 -0 -0 -0 -0 -0 -0 -0 -0 -0 -0 -0 -0 -0 -0 -0 -0 -0
-0 -0 -0 -0 -0 -0 -0 -0 -0 -0 -0 -0 -0 -0 -0 -0 -0 -0 -0 -0 -0 -0 -0 -0 -0 -0 -0 -0 -0 -0 -0 -0 -0 -0 -0 -0 -0 -0 -0 -0 -0 -0 -0
-0 -0 -0 -0 -0 -0 -0 -0 -0 -0 -0 -0 -0 -0 -0 -0 -0 -0 -0 -0 -0 -0 -0 -0 -0 -0 -0 -0 -0 -0 -0 -0 -0 -0 -0 -0 -0 -0 -0 -0 -0 -0 -0
Wind_Speed
17 16 16 15 12 11 12 13 12 14 11 11 12 12 15 13 12 10 11 14 13 15 13 9 11 11 12 11 11 8 10 6 8 6 4 3 6 7 7 6 4 6 8
22 21 21 19 16 16 15 15 15 14 14 12 13 12 13 11 10 9 10 12 13 14 13 12 11 12 10 11 12 12 6 6 10 5 5 3 3 6 8 7 8 10 6
18 22 24 21 18 18 16 17 18 16 16 19 11 9 8 6 9 11 10 12 12 12 11 13 9 10 10 10 12 13 14 9 9 11 6 5 5 4 5 9 8 10 8
24 22 23 26 24 21 16 17 16 16 16 18 15 17 12 12 10 11 13 14 20 17 15 11 10 10 10 11 11 11 12 10 10 8 11 5 7 7 4 4 9 8 11
21 23 24 24 25 22 19 11 12 13 15 16 16 11 11 7 5 5 11 13 15 16 15 14 15 14 11 13 11 11 13 10 10 11 9 11 6 6 4 5 5 8 10
22 25 26 24 23 19 12 7 4 5 2 4 5 12 15 10 6 5 4 6 6 8 12 12 15 14 11 12 12 13 14 12 11 10 11 13 11 11 8 7 8 10 8
19 23 29 25 22 11 8 9 9 12 10 7 7 8 12 12 13 6 4 10 4 3 8 10 11 10 12 12 11 13 14 15 13 12 12 11 12 9 12 8 6 6 5
18 22 26 26 24 19 15 11 13 13 13 11 12 8 10 11 11 8 3 3 4 3 6 5 7 9 11 12 12 10 11 12 13 16 13 9 11 10 11 10 7 6 5
18 22 23 21 23 22 21 17 14 13 13 11 12 11 12 16 9 8 8 5 6 6 5 5 8 10 10 12 13 11 12 12 13 14 13 12 11 9 9 8 8 9 9
18 19 18 21 18 22 21 21 18 16 12 13 12 11 13 14 13 11 9 9 7 8 9 8 6 8 9 9 12 11 13 14 11 10 13 12 10 10 10 8 7 8 8
14 14 13 16 19 18 21 21 21 20 15 15 13 15 14 13 12 11 11 9 8 8 8 9 9 9 8 9 11 12 12 15 14 12 13 15 14 10 10 9 9 9 9
9 9 9 13 14 14 17 18 19 19 17 16 15 15 14 11 14 12 10 9 9 10 10 11 10 9 9 9 9 11 11 13 14 15 14 14 11 14 12 9 12 10 12
14 12 11 11 13 13 13 13 17 17 19 18 15 14 15 14 12 11 10 12 12 11 10 10 11 11 10 10 9 11 11 13 15 15 15 15 15 14 10 10 11 11 9
15 15 14 13 11 12 13 13 15 17 17 18 19 17 17 16 14 13 13 12 12 12 12 11 10 11 11 11 11 9 11 13 13 14 15 15 15 16 14 12 13 10 10
17 17 16 15 14 15 15 16 16 17 16 15 14 16 14 13 12 13 12 12 11 11 12 12 11 11 10 8 11 13 10 10 12 13 13 14 15 17 15 11 12 12 11
17 17 17 18 16 16 15 14 13 12 13 13 14 13 12 12 13 13 13 12 12 12 13 12 12 10 8 11 14 13 12 11 11 12 13 12 14 16 16 16 14 14 12
16 16 15 15 15 15 14 14 13 15 16 15 15 15 15 15 15 14 13 13 13 12 13 13 12 11 11 10 12 16 12 11 10 12 11 11 7 12 13 13 13 13 14
15 15 14 14 14 14 15 14 13 12 13 13 13 14 15 15 14 14 14 14 13 13 13 13 14 13 9 11 14 15 13 9 11 12 11 11 10 12 11 9 8 9 8
13 13 14 14 15 15 16 14 13 14 14 15 16 16 15 15 14 14 15 13 13 14 13 14 14 13 12 11 14 14 12 10 10 8 9 9 11 15 16 10 10 7 7
12 13 14 13 14 16 15 14 14 14 15 15 15 14 13 13 13 14 14 12 12 13 12 14 12 14 13 12 13 12 8 10 8 5 5 9 10 15 17 13 11 9 8
13 13 13 13 14 15 15 14 14 15 16 15 14 14 14 14 13 14 12 13 13 11 11 13 13 13 11 11 14 14 9 7 7 5 5 5 7 10 16 14 10 10 9
14 14 13 13 13 14 13 15 15 15 16 15 14 14 14 11 11 13 13 13 12 12 12 12 12 10 11 8 10 14 12 12 8 7 3 0 4 7 10 8 13 15 10
12 12 12 13 12 13 12 14 15 16 15 15 15 13 13 12 12 12 12 10 10 9 10 11 10 11 10 8 10 12 13 11 6 3 2 8 9 10 6 12 17 12 7
11 10 11 11 12 13 13 13 14 14 13 13 12 12 11 13 11 9 9 9 9 10 9 10 11 11 10 8 5 6 5 6 4 5 4 6 6 7 8 3 6 5 6
11 11 11 13 14 15 15 14 15 15 14 13 11 13 11 12 12 11 9 9 9 10 10 10 12 11 9 7 10 7 4 1 2 3 2 3 3 4 5 3 5 7 7
11 12 13 13 13 14 14 13 14 14 14 13 10 10 9 9 8 9 10 13 14 14 15 19 17 12 18 15 10 4 3 5 2 2 1 2 4 2 4 5 5 5 8
Wind_Direction
334 330 333 326 315 294 284 275 272 240 215 200 196 201 206 201 198 196 195 213 207 210 201 194 187 184 193 196 188 178 180 188 189 159 168 196 219 217 211 204 178 196 204
337 332 328 324 315 300 289 278 261 250 228 217 208 204 201 202 195 181 193 194 211 209 210 204 201 193 193 190 188 184 169 177 172 165 133 183 192 229 225 210 207 208 190
331 329 326 320 313 305 298 291 277 256 235 219 212 208 194 185 178 183 182 194 199 210 217 212 207 200 200 202 194 195 182 181 182 188 155 168 202 158 201 213 206 203 198
335 331 326 323 318 308 296 282 274 260 240 219 211 199 198 198 202 196 193 195 182 184 187 211 202 210 204 210 202 199 197 191 183 196 220 242 148 191 185 209 210 203 204
328 325 322 316 307 305 298 282 277 263 234 214 212 195 197 187 149 176 210 196 191 187 175 178 216 207 213 212 197 189 198 205 196 195 189 208 189 187 153 180 191 205 214
326 324 321 319 308 302 290 341 2 11 257 161 170 183 186 185 137 150 147 252 214 195 207 194 202 198 201 207 196 194 197 206 206 198 206 203 196 198 199 198 184 206 204
342 346 344 324 312 299 37 18 31 48 38 62 87 143 130 93 89 67 14 248 237 198 219 195 200 203 205 208 199 199 201 206 204 201 210 208 217 209 212 203 185 177 193
13 2 7 355 8 9 29 50 43 43 46 54 61 62 91 93 72 56 16 270 285 256 217 201 231 222 211 211 202 203 205 206 209 205 208 207 214 210 214 203 186 183 178
20 11 8 7 359 10 12 13 39 46 37 46 56 50 55 77 84 99 85 20 4 337 294 251 235 225 224 221 214 208 206 208 209 211 204 212 215 204 210 204 198 199 203
11 7 13 352 10 9 5 7 14 17 19 33 37 42 44 52 55 54 42 31 359 344 335 317 283 250 234 227 222 215 213 208 206 208 205 209 208 198 198 198 199 211 215
3 4 343 8 352 19 4 358 9 12 355 28 27 37 30 35 42 37 29 7 347 343 350 327 322 292 257 232 227 217 215 214 212 205 208 207 205 198 201 193 202 203 209
7 342 342 350 1 357 17 342 4 357 358 9 17 30 29 19 31 28 12 358 349 351 344 335 311 308 290 248 235 224 214 217 213 210 208 210 200 204 194 189 201 207 210
4 7 352 354 2 350 5 359 355 352 357 354 10 21 21 22 12 10 0 0 356 351 341 331 328 315 307 306 246 228 225 216 214 211 209 206 197 199 189 192 196 205 207
2 2 3 353 357 355 349 2 359 355 351 352 7 12 8 5 357 352 0 352 349 350 342 328 320 311 307 301 302 255 234 225 217 212 208 204 197 197 193 198 204 202 198
1 2 359 352 356 354 352 352 11 353 345 346 355 4 1 0 349 350 347 353 353 345 334 322 315 316 313 307 332 328 253 242 222 214 213 205 198 201 199 198 202 195 200
353 352 356 352 353 358 344 353 352 338 344 353 354 351 357 356 360 347 347 345 347 339 329 316 311 312 310 323 325 327 314 255 223 225 206 207 201 202 197 191 183 188 189
348 347 350 348 346 351 348 346 344 350 354 352 346 355 2 355 351 340 342 343 341 333 322 314 313 311 312 316 320 322 313 287 245 223 216 210 196 194 196 201 198 198 196
348 346 344 347 348 347 344 344 351 357 359 350 347 359 360 348 341 341 342 340 333 326 319 315 312 309 311 312 318 316 303 279 265 237 220 209 197 197 189 179 197 211 200
349 342 339 342 344 351 348 350 354 359 354 354 353 354 350 342 340 341 335 332 324 323 320 315 308 303 311 315 315 321 313 290 264 236 216 197 192 195 192 182 193 207 223
356 350 341 342 349 348 350 356 353 357 356 351 349 344 348 345 338 337 331 327 321 315 315 311 306 302 306 318 314 320 305 293 281 252 257 225 210 200 190 200 187 198 216
352 352 349 351 350 348 348 350 352 0 351 345 343 345 350 343 338 333 329 329 325 321 318 316 315 309 307 318 318 316 307 289 292 262 249 244 211 205 195 192 181 199 133
352 352 353 350 348 349 350 353 354 349 347 343 345 350 348 346 338 331 331 332 330 327 328 326 320 320 317 304 315 321 308 299 272 258 241 351 262 216 176 151 130 123 112
347 348 347 345 350 352 355 351 347 346 342 344 344 344 346 345 346 340 337 329 334 336 334 328 322 317 314 305 306 311 319 310 288 279 195 131 121 112 66 130 130 124 126
342 341 344 342 344 351 356 358 346 342 342 339 333 338 342 347 347 342 340 336 340 338 338 336 322 313 308 304 302 304 318 347 8 53 67 77 85 81 91 105 90 105 126
346 344 344 344 347 349 353 354 346 347 345 343 338 342 347 348 343 347 340 342 345 346 348 346 338 324 315 312 310 295 312 7 79 91 44 68 61 100 108 113 89 104 114
344 344 343 342 343 344 344 346 348 348 343 338 343 339 338 339 343 342 341 347 356 352 358 357 358 351 350 326 318 330 81 137 113 356 319 91 91 95 122 113 109 107 120